This is the latest recevied weather packets stored in our database for station/object PD2BVG. If no packets are shown the sender has not sent any weather packets the latest 1 day(s).
| Time | Temp. | Humidity | Pressure | Rain* | Wind** | Luminosity | Snow |
|---|---|---|---|---|---|---|---|
| 1777999403 | 13.33° C | 73% | 1010.5 hPa | 0 mm | 4.02 m/s, 8° | 280 W/m² | - |
| 1777999343 | 13.89° C | 73% | 1010.5 hPa | 0 mm | 4.92 m/s, 324° | 292 W/m² | - |
| 1777999281 | 13.89° C | 73% | 1010.5 hPa | 0 mm | 5.81 m/s, 313° | 285 W/m² | - |
| 1777999219 | 13.89° C | 73% | 1010.4 hPa | 0 mm | 4.47 m/s, 350° | 267 W/m² | - |
| 1777999159 | 13.89° C | 73% | 1010.5 hPa | 0 mm | 3.58 m/s, 312° | 267 W/m² | - |
| 1777999099 | 13.89° C | 73% | 1010.5 hPa | 0 mm | 3.58 m/s, 348° | 296 W/m² | - |
| 1777999036 | 13.89° C | 73% | 1010.5 hPa | 0 mm | 4.02 m/s, 344° | 278 W/m² | - |
| 1777998977 | 13.89° C | 72% | 1010.6 hPa | 0 mm | 4.02 m/s, 329° | 250 W/m² | - |
| 1777998914 | 13.89° C | 72% | 1010.6 hPa | 0 mm | 4.92 m/s, 0° | 259 W/m² | - |
| 1777998855 | 13.89° C | 72% | 1010.5 hPa | 0 mm | 5.36 m/s, 340° | 262 W/m² | - |
| 1777998794 | 13.89° C | 72% | 1010.5 hPa | 0 mm | 4.47 m/s, 350° | 255 W/m² | - |
| 1777998732 | 13.89° C | 72% | 1010.5 hPa | 0 mm | 4.47 m/s, 0° | 255 W/m² | - |
| 1777998672 | 13.89° C | 72% | 1010.5 hPa | 0 mm | 4.47 m/s, 0° | 267 W/m² | - |
| 1777998611 | 13.89° C | 72% | 1010.5 hPa | 0 mm | 4.47 m/s, 340° | 260 W/m² | - |
| 1777998551 | 13.89° C | 72% | 1010.4 hPa | 0 mm | 4.92 m/s, 333° | 218 W/m² | - |
| 1777998489 | 13.89° C | 72% | 1010.6 hPa | 0 mm | 4.47 m/s, 334° | 194 W/m² | - |
| 1777998429 | 13.89° C | 72% | 1010.5 hPa | 0 mm | 4.47 m/s, 323° | 234 W/m² | - |
| 1777998369 | 13.89° C | 72% | 1010.4 hPa | 0 mm | 4.92 m/s, 351° | 266 W/m² | - |
| 1777998309 | 13.89° C | 73% | 1010.4 hPa | 0 mm | 5.36 m/s, 329° | 252 W/m² | - |
| 1777998249 | 13.89° C | 73% | 1010.3 hPa | 0 mm | 4.47 m/s, 354° | 252 W/m² | - |
| 1777998187 | 13.89° C | 73% | 1010.4 hPa | 0 mm | 4.47 m/s, 11° | 313 W/m² | - |
| 1777998128 | 13.89° C | 73% | 1010.4 hPa | 0 mm | 4.92 m/s, 32° | 318 W/m² | - |
| 1777998067 | 13.89° C | 73% | 1010.3 hPa | 0 mm | 4.47 m/s, 333° | 310 W/m² | - |
| 1777998008 | 13.89° C | 73% | 1010.5 hPa | 0 mm | 4.02 m/s, 0° | 306 W/m² | - |
| 1777997944 | 13.89° C | 72% | 1010.4 hPa | 0 mm | 4.47 m/s, 357° | 278 W/m² | - |
* Rain latest hour (hover to see other rain measurements)
** Current wind speed in m/s (hover to see current wind gust speed)